Theta_e
336 342 348 350 349 349 348 346 345 342 341 342 341 343 344 344 343 345 345 346 346 343 342 342 342 343 340 340 341 341 339 339 339 339 340 340 338 337 336 338 336 331 337
338 342 347 349 350 349 348 347 344 341 340 340 342 343 341 343 344 341 343 340 343 341 340 339 340 339 338 338 339 339 338 338 339 339 339 338 339 338 338 338 339 334 336
338 342 345 347 349 349 348 346 344 343 340 339 340 340 340 341 343 341 341 344 342 339 338 337 338 338 337 336 336 335 335 336 337 337 336 332 333 339 338 337 338 338 338
339 341 344 345 347 348 347 346 344 343 343 339 339 338 339 340 341 342 341 343 342 338 337 337 337 336 335 335 334 334 334 336 337 333 328 330 332 335 336 336 336 336 336
337 341 343 345 347 348 347 345 343 343 342 341 339 338 338 338 341 342 342 343 342 339 336 336 335 335 334 333 333 333 333 335 334 329 325 326 327 333 335 334 333 335 336
338 341 342 346 348 347 346 345 343 343 342 341 338 337 337 337 342 344 343 341 340 337 335 335 334 334 333 332 332 333 334 335 331 324 326 329 328 334 334 334 334 334 335
338 341 343 344 346 346 346 345 343 342 342 340 337 336 336 336 338 342 342 341 337 336 335 334 334 334 334 332 332 332 333 334 325 323 326 328 330 334 333 334 334 333 333
337 339 341 338 341 343 344 345 343 342 341 340 339 337 334 335 336 339 342 340 338 335 334 333 333 333 333 332 331 331 330 329 326 327 328 328 334 334 334 334 334 334 333
337 337 339 340 339 337 340 341 342 342 340 339 338 337 334 333 333 335 336 338 337 335 334 333 332 332 332 331 329 329 328 328 323 327 327 327 334 334 335 334 334 333 334
330 335 337 339 340 339 337 334 337 339 337 337 335 333 330 330 330 332 331 334 335 333 333 333 332 332 331 330 328 327 326 326 323 324 323 327 334 333 334 333 333 333 333
327 329 334 336 338 338 337 333 331 333 333 331 330 327 325 327 326 326 328 332 333 334 335 333 332 331 330 328 327 325 324 322 322 323 322 328 333 333 332 331 332 332 332
324 325 329 335 335 336 337 334 331 332 332 331 330 327 328 326 327 327 325 328 331 330 333 334 332 330 325 321 319 322 320 321 322 322 321 329 331 331 331 330 330 331 332
324 325 327 332 333 333 333 333 332 329 329 331 329 329 328 326 323 323 322 324 324 322 326 329 327 322 321 320 318 318 319 320 320 321 322 326 328 328 329 329 328 329 331
322 324 326 328 331 332 332 330 329 329 327 330 328 329 327 324 323 322 321 322 324 322 321 323 323 321 321 322 320 318 318 318 318 319 317 321 324 326 327 327 327 327 330
321 325 325 326 326 328 327 326 326 325 327 326 328 328 328 325 322 321 322 321 322 323 322 321 321 320 320 320 320 319 318 317 317 317 313 316 321 324 325 327 327 326 328
323 322 326 326 325 326 327 324 324 325 325 326 326 328 328 326 323 321 320 319 320 319 320 321 319 318 318 318 318 318 318 318 318 317 316 314 319 323 324 326 326 326 328
325 323 324 326 326 324 325 326 325 325 326 325 325 326 328 326 324 321 319 318 318 319 319 319 319 318 317 318 317 318 318 317 317 318 317 317 316 319 322 325 326 326 329
326 325 325 327 326 325 325 326 325 325 325 325 325 326 326 327 324 321 320 318 318 318 318 318 318 316 316 316 315 316 316 317 317 317 317 317 317 317 319 324 325 327 328
326 326 326 327 326 326 325 326 325 324 325 325 326 325 326 326 325 322 320 319 318 317 317 318 318 316 314 314 315 315 315 315 316 318 316 317 317 318 317 321 321 322 328
324 327 328 328 327 327 327 325 325 325 325 325 325 325 325 326 324 322 321 319 319 317 316 318 316 317 315 315 317 315 315 316 316 315 316 317 317 318 318 317 315 316 321
322 324 326 327 328 327 326 324 322 322 323 324 325 326 325 325 325 323 321 319 319 317 317 317 318 315 315 315 313 312 312 314 315 316 316 316 317 317 317 318 316 316 317
316 322 324 325 327 329 328 327 325 323 323 324 325 325 326 325 325 324 322 321 319 318 316 316 317 316 315 315 311 310 306 309 313 318 318 316 315 316 317 317 318 317 315
313 314 320 324 325 328 329 329 327 326 323 322 323 324 325 325 325 324 323 322 321 321 318 317 317 317 315 316 315 311 305 303 308 313 314 315 315 315 316 316 316 316 314
307 311 314 319 323 326 328 328 326 325 322 324 324 325 325 326 325 325 324 323 323 323 321 319 319 319 317 314 316 317 313 311 305 304 311 312 314 314 314 314 314 315 313
308 310 311 314 315 321 325 327 327 326 326 326 326 324 324 325 325 325 324 323 323 323 323 321 320 320 319 317 316 313 315 312 311 306 303 307 310 312 314 315 314 314 312
307 309 313 313 313 315 319 324 326 325 326 326 325 324 324 324 324 324 324 324 323 323 323 322 321 321 320 319 318 316 313 312 312 309 305 305 308 309 314 313 314 313 311
Wind_Speed
11 8 8 13 15 16 17 17 15 14 14 14 14 13 12 13 13 15 14 15 17 18 17 17 17 19 19 19 19 21 20 20 20 21 22 20 22 22 22 20 16 15 22
14 11 9 12 14 15 15 15 14 13 13 14 14 12 13 13 14 16 13 14 16 17 17 16 17 17 18 17 18 17 15 13 16 16 17 18 19 21 21 19 17 17 20
14 12 10 11 14 14 14 14 13 12 13 13 12 11 13 14 13 16 13 11 15 16 16 15 16 17 16 16 14 13 12 10 7 16 14 9 12 21 21 19 19 20 19
15 11 11 11 13 14 14 13 13 12 11 13 13 12 11 13 10 16 14 13 16 15 16 15 15 16 15 14 13 11 11 12 10 13 8 9 12 17 18 19 19 19 18
13 11 12 12 12 13 13 13 12 12 12 12 12 12 11 11 8 15 13 11 15 15 14 14 15 15 14 14 11 9 10 12 16 11 9 7 7 14 17 17 15 16 14
14 12 12 12 13 13 13 14 13 11 12 10 12 11 11 10 11 13 14 14 15 13 13 14 14 14 13 11 8 8 9 7 13 9 8 9 9 14 15 14 14 14 12
13 11 10 11 11 11 12 13 12 12 12 12 11 10 10 10 8 13 11 15 14 12 12 12 13 12 12 9 7 8 12 9 9 7 7 5 7 13 11 13 11 11 11
13 10 10 9 10 11 11 12 12 11 12 12 10 10 10 9 7 9 11 13 14 11 11 12 12 12 11 7 6 8 9 7 9 6 6 5 9 10 11 9 10 10 9
13 11 11 8 8 9 10 10 11 11 12 14 12 9 9 9 8 7 8 10 11 12 11 10 11 11 11 7 4 5 6 8 7 5 6 4 7 9 10 12 11 10 12
8 10 11 11 10 8 6 8 8 11 11 13 14 10 6 8 10 5 6 7 8 9 10 11 10 10 9 8 3 4 8 7 7 6 4 4 8 6 10 10 10 9 9
7 7 10 10 11 10 9 7 6 9 10 10 11 12 7 4 5 6 7 7 9 6 9 9 10 9 8 6 3 4 6 3 4 5 4 6 6 8 9 8 10 8 8
8 8 7 11 9 8 8 10 7 6 5 5 6 7 5 6 6 7 7 8 11 9 7 10 9 9 8 4 3 5 2 1 3 4 3 5 4 6 6 6 7 7 9
7 6 8 10 10 12 8 7 5 4 4 5 7 7 6 4 4 4 3 3 4 6 4 5 5 4 6 4 5 4 4 2 2 4 5 3 3 3 4 4 5 5 8
10 8 8 8 9 10 6 7 6 6 5 6 5 7 5 3 5 4 3 4 4 4 5 5 4 6 6 2 5 3 3 3 2 4 5 7 3 1 2 2 2 3 7
13 14 9 8 8 7 6 4 5 5 7 6 9 9 7 5 5 4 5 5 5 5 5 5 5 5 4 4 3 3 4 3 3 3 3 9 6 3 1 2 2 2 4
9 13 14 10 8 7 7 6 5 5 5 5 5 9 10 6 5 5 5 5 5 5 4 4 5 5 5 4 5 5 5 5 5 5 4 5 10 7 5 4 4 4 3
8 9 14 13 10 10 9 8 6 5 6 6 5 7 11 8 8 7 5 5 5 5 7 5 5 4 5 4 6 6 5 6 5 6 4 5 5 9 8 7 6 6 7
9 11 9 13 15 13 12 9 6 7 6 6 6 6 9 11 8 7 6 6 6 5 5 5 4 4 4 5 4 5 5 5 6 6 5 5 5 5 8 9 7 7 8
11 10 13 13 15 16 12 10 10 8 7 7 7 7 10 12 11 9 7 7 7 5 5 5 5 5 4 4 5 5 5 5 6 5 6 6 6 5 5 9 9 6 8
9 11 12 11 13 14 10 9 8 8 8 8 8 9 11 11 13 9 8 8 8 6 5 6 5 5 5 5 4 4 5 5 5 5 6 5 6 7 6 6 5 5 8
8 9 10 11 10 9 9 10 9 11 10 9 9 13 13 12 13 13 9 9 9 9 10 9 7 6 6 5 3 2 3 6 6 5 5 4 6 6 7 7 5 4 4
8 8 8 9 10 11 10 9 9 8 8 8 8 10 13 14 16 14 13 11 12 9 10 10 11 7 5 6 5 3 3 4 5 8 5 5 7 5 6 7 8 8 7
9 10 9 9 9 11 14 8 7 6 4 7 10 11 13 16 17 17 17 13 13 12 11 12 12 13 9 7 8 6 3 5 3 3 7 6 7 5 6 7 7 7 7
4 2 4 7 8 9 12 13 14 12 12 13 11 10 12 16 17 17 17 17 15 12 14 14 12 11 9 10 7 10 4 3 4 1 2 5 6 7 7 6 7 8 7
4 4 4 5 5 6 8 12 12 13 11 10 9 13 15 15 18 18 18 19 18 13 16 16 15 15 12 10 10 5 11 3 4 2 3 4 3 5 7 7 8 8 8
5 3 4 6 8 7 7 9 13 15 15 12 13 11 11 12 13 19 20 19 18 17 17 16 16 18 16 14 11 11 8 9 8 6 4 4 7 5 8 6 8 7 7
Wind_Direction
107 115 116 118 116 113 105 103 100 100 98 96 99 100 95 82 90 93 84 85 83 85 85 82 80 75 79 77 78 80 84 85 80 73 66 72 77 76 74 70 67 72 75
119 117 119 125 120 114 112 111 105 102 98 97 103 103 102 91 97 91 84 87 88 92 84 85 83 83 80 79 81 81 80 79 94 90 75 63 76 77 73 76 75 74 78
117 122 121 119 120 116 113 111 106 108 108 104 108 106 102 93 89 102 91 86 94 88 85 83 84 83 81 80 79 74 69 60 73 95 89 80 77 73 72 70 68 66 67
121 134 126 122 124 121 119 114 111 110 109 111 110 109 96 99 88 101 95 82 96 93 89 85 85 85 85 86 84 70 48 34 66 72 71 61 67 74 71 70 67 66 60
126 121 125 129 131 131 127 122 120 121 113 113 113 113 108 104 93 110 104 101 101 98 91 87 87 87 88 90 91 65 29 13 65 63 63 74 75 74 73 71 65 62 61
115 118 132 138 141 139 137 132 128 124 118 112 117 120 117 115 95 107 111 92 83 90 96 95 93 93 93 93 78 47 19 9 67 53 70 72 80 76 76 70 67 65 62
122 128 134 139 141 141 142 137 136 132 126 120 122 123 125 124 107 108 116 108 102 102 102 102 102 99 95 91 65 34 18 62 92 85 84 80 80 81 76 70 63 61 60
129 136 135 140 139 140 147 145 142 141 132 124 119 122 130 135 112 70 103 113 111 108 112 111 111 109 102 89 52 21 13 354 92 88 76 71 86 82 69 57 66 68 66
135 144 143 151 146 142 144 148 150 155 153 142 131 130 140 143 151 73 94 113 109 113 120 117 117 119 115 103 57 357 357 25 81 83 76 59 74 71 62 68 61 63 87
141 148 151 155 154 155 152 154 160 166 164 151 139 137 127 143 158 112 111 118 125 135 133 130 129 126 121 117 102 326 351 340 118 100 78 63 51 68 76 63 67 74 90
154 179 156 152 167 167 158 164 159 161 160 147 139 142 148 153 168 172 168 144 145 132 149 147 144 137 130 127 151 281 313 298 84 109 91 37 61 74 72 65 62 83 112
170 186 171 164 160 174 169 156 164 165 164 167 153 152 183 175 177 173 151 161 137 153 167 158 154 159 164 167 198 249 255 81 70 110 98 34 79 74 78 70 70 88 124
182 189 186 166 166 187 189 161 172 169 174 167 168 167 214 151 142 138 136 151 139 166 167 149 162 197 202 201 185 218 171 195 139 114 126 98 63 69 74 75 76 83 137
178 215 196 188 176 177 196 165 177 172 187 172 181 178 206 150 153 167 155 190 175 183 192 184 186 213 223 208 178 190 157 217 152 133 158 158 151 108 93 93 112 105 148
179 186 204 191 186 182 187 179 182 184 184 179 172 186 192 182 171 188 171 180 189 182 198 191 193 202 180 200 208 209 194 222 165 146 163 170 174 174 173 179 175 166 158
188 182 187 192 188 184 190 193 198 185 183 183 176 180 184 181 173 187 178 183 188 187 210 190 200 183 195 194 197 209 212 202 199 204 164 183 182 187 200 202 203 216 199
200 181 185 188 186 185 193 205 193 193 193 193 190 178 186 185 183 177 183 185 193 184 198 199 208 192 193 198 195 201 212 221 209 204 205 175 187 189 200 214 207 230 227
188 190 183 188 191 193 196 195 202 199 194 192 196 190 187 196 186 179 178 189 190 190 186 186 190 196 201 196 202 205 193 214 222 219 205 199 177 185 198 204 206 232 215
192 187 195 192 192 194 197 197 202 201 197 201 196 198 197 196 201 188 185 191 186 191 188 188 197 173 194 215 204 209 198 202 214 214 217 206 203 179 184 200 196 214 210
190 194 198 198 195 193 198 202 202 205 204 202 203 200 198 198 200 200 197 191 190 188 188 190 189 200 184 192 206 217 204 203 208 211 215 205 195 194 182 177 186 204 209
200 194 197 197 194 187 198 204 209 212 206 210 208 205 199 197 199 202 201 200 195 198 200 197 195 185 210 189 161 239 248 220 211 216 216 214 205 191 188 176 185 193 210
212 207 201 197 187 194 199 208 211 216 219 215 216 213 205 199 199 201 203 202 200 196 201 202 200 197 190 190 168 127 234 285 245 209 193 208 222 208 194 197 182 190 192
215 206 201 200 197 195 203 199 208 212 216 214 214 213 211 206 203 200 202 202 202 199 201 201 201 199 199 198 189 161 195 222 179 222 204 193 206 200 198 195 199 200 183
284 302 262 220 204 200 194 201 205 212 216 224 222 216 215 213 211 206 204 204 205 203 203 202 200 200 188 202 198 223 230 167 180 258 277 204 197 203 198 201 203 208 193
346 311 286 301 262 238 209 206 208 217 225 229 227 222 214 213 213 208 206 207 208 206 210 203 200 199 205 197 204 182 225 227 219 153 198 227 219 209 208 204 203 204 195
265 241 270 264 264 256 240 218 215 219 224 227 230 226 223 218 215 214 209 208 210 211 209 207 202 203 202 207 202 201 194 195 205 199 201 184 199 219 210 208 205 207 197